Time,TemperatureF,DewpointF,PressureIn,WindDirection,WindDirectionDegrees,WindSpeedMPH,WindSpeedGustMPH,Humidity,HourlyPrecipIn,Conditions,Clouds,dailyrainin,SoftwareType,DateUTC
2013-03-08 00:00:00,52.6,50.9,30.11,NE,42,0.0,0.0,94,0.00,,---,0.00,VWS V14.01,2013-03-08 05:00:00,
2013-03-08 00:01:00,52.6,50.9,30.11,NE,42,0.0,0.0,94,0.00,,---,0.00,VWS V14.01,2013-03-08 05:01:00,
2013-03-08 00:06:00,52.5,50.8,30.11,NE,42,0.0,0.0,94,0.00,,---,0.00,VWS V14.01,2013-03-08 05:06:00,
2013-03-08 00:11:00,52.4,50.7,30.11,NE,42,0.0,0.0,94,0.00,,---,0.00,VWS V14.01,2013-03-08 05:11:00,
2013-03-08 00:16:00,52.2,50.5,30.11,NE,42,0.0,0.0,94,0.00,,---,0.00,VWS V14.01,2013-03-08 05:16:00,
2013-03-08 00:21:00,52.0,50.3,30.11,NE,42,0.0,0.0,94,0.00,,---,0.00,VWS V14.01,2013-03-08 05:21:00,
2013-03-08 00:26:00,51.9,50.2,30.11,NE,42,0.0,0.0,94,0.00,,---,0.00,VWS V14.01,2013-03-08 05:26:00,
2013-03-08 00:30:00,52.0,50.6,30.10,NE,42,0.0,0.0,95,0.00,,---,0.00,VWS V14.01,2013-03-08 05:30:00,
2013-03-08 00:31:00,51.8,50.1,30.11,NE,42,0.0,0.0,94,0.00,,---,0.00,VWS V14.01,2013-03-08 05:31:00,
2013-03-08 00:36:00,51.7,50.0,30.11,NE,42,0.0,0.0,94,0.00,,---,0.00,VWS V14.01,2013-03-08 05:36:00,
2013-03-08 00:41:00,51.7,50.0,30.11,NE,42,0.0,0.0,94,0.00,,---,0.00,VWS V14.01,2013-03-08 05:41:00,
2013-03-08 00:46:00,51.7,50.3,30.11,NE,42,0.0,0.0,95,0.00,,---,0.00,VWS V14.01,2013-03-08 05:46:00,
2013-03-08 00:51:00,51.6,50.2,30.10,NE,42,0.0,0.0,95,0.00,,---,0.00,VWS V14.01,2013-03-08 05:51:00,
2013-03-08 00:56:00,51.5,50.1,30.10,NE,42,0.0,0.0,95,0.00,,---,0.00,VWS V14.01,2013-03-08 05:56:00,
2013-03-08 01:00:00,51.2,49.8,30.09,NE,42,0.0,0.0,95,0.00,,---,0.00,VWS V14.01,2013-03-08 06:00:00,
2013-03-08 01:01:00,51.4,50.0,30.11,NE,42,0.0,0.0,95,0.00,,---,0.00,VWS V14.01,2013-03-08 06:01:00,
2013-03-08 01:06:00,51.5,50.1,30.10,NE,42,0.0,0.0,95,0.00,,---,0.00,VWS V14.01,2013-03-08 06:06:00,
2013-03-08 01:11:00,51.6,50.2,30.10,NE,42,0.0,0.0,95,0.00,,---,0.00,VWS V14.01,2013-03-08 06:11:00,
2013-03-08 01:16:00,51.8,50.4,30.10,NE,42,0.0,0.0,95,0.00,,---,0.00,VWS V14.01,2013-03-08 06:16:00,
2013-03-08 01:21:00,52.1,51.0,30.10,NE,42,0.0,0.0,96,0.00,,---,0.00,VWS V14.01,2013-03-08 06:21:00,
2013-03-08 01:26:00,52.0,50.6,30.10,NE,42,0.0,0.0,95,0.00,,---,0.00,VWS V14.01,2013-03-08 06:26:00,
2013-03-08 01:30:00,50.6,49.2,30.08,NE,42,0.0,0.0,95,0.00,,---,0.00,VWS V14.01,2013-03-08 06:30:00,
2013-03-08 01:31:00,52.0,50.6,30.10,NE,42,0.0,0.0,95,0.00,,---,0.00,VWS V14.01,2013-03-08 06:31:00,
2013-03-08 01:36:00,51.9,50.5,30.10,NE,42,0.0,0.0,95,0.00,,---,0.00,VWS V14.01,2013-03-08 06:36:00,
2013-03-08 01:41:00,51.9,50.5,30.10,NE,42,0.0,0.0,95,0.00,,---,0.00,VWS V14.01,2013-03-08 06:41:00,
2013-03-08 01:46:00,51.8,50.4,30.10,NE,42,0.0,0.0,95,0.00,,---,0.00,VWS V14.01,2013-03-08 06:46:00,
2013-03-08 01:51:00,51.6,50.2,30.10,NE,42,0.0,0.0,95,0.00,,---,0.00,VWS V14.01,2013-03-08 06:51:00,
2013-03-08 01:56:00,51.4,49.7,30.09,NE,42,0.0,0.0,94,0.00,,---,0.00,VWS V14.01,2013-03-08 06:56:00,
2013-03-08 02:00:00,49.8,48.4,30.08,NE,42,0.0,0.0,95,0.00,,---,0.00,VWS V14.01,2013-03-08 07:00:00,
2013-03-08 02:01:00,51.2,49.8,30.09,NE,42,0.0,0.0,95,0.00,,---,0.00,VWS V14.01,2013-03-08 07:01:00,
2013-03-08 02:06:00,51.2,49.8,30.09,NE,42,0.0,0.0,95,0.00,,---,0.00,VWS V14.01,2013-03-08 07:06:00,
2013-03-08 02:11:00,51.0,49.6,30.09,NE,42,0.0,0.0,95,0.00,,---,0.00,VWS V14.01,2013-03-08 07:11:00,
2013-03-08 02:16:00,50.9,49.5,30.09,NE,42,0.0,0.0,95,0.00,,---,0.00,VWS V14.01,2013-03-08 07:16:00,
2013-03-08 02:21:00,50.8,49.4,30.09,NE,42,0.0,0.0,95,0.00,,---,0.00,VWS V14.01,2013-03-08 07:21:00,
2013-03-08 02:26:00,50.8,49.4,30.08,NE,42,0.0,0.0,95,0.00,,---,0.00,VWS V14.01,2013-03-08 07:26:00,
2013-03-08 02:30:00,49.1,47.7,30.09,NE,42,0.0,0.0,95,0.00,,---,0.00,VWS V14.01,2013-03-08 07:30:00,
2013-03-08 02:31:00,50.6,49.2,30.08,NE,42,0.0,0.0,95,0.00,,---,0.00,VWS V14.01,2013-03-08 07:31:00,
2013-03-08 02:36:00,50.5,49.1,30.08,NE,42,0.0,0.0,95,0.00,,---,0.00,VWS V14.01,2013-03-08 07:36:00,
2013-03-08 02:41:00,50.3,48.9,30.08,NE,42,0.0,0.0,95,0.00,,---,0.00,VWS V14.01,2013-03-08 07:41:00,
2013-03-08 02:46:00,50.1,48.7,30.08,NE,42,0.0,0.0,95,0.00,,---,0.00,VWS V14.01,2013-03-08 07:46:00,
2013-03-08 02:51:00,49.9,48.5,30.08,NE,42,0.0,0.0,95,0.00,,---,0.00,VWS V14.01,2013-03-08 07:51:00,
2013-03-08 02:56:00,49.8,48.4,30.08,NE,42,0.0,0.0,95,0.00,,---,0.00,VWS V14.01,2013-03-08 07:56:00,
2013-03-08 03:00:00,48.5,47.4,30.08,NE,42,0.0,0.0,96,0.00,,---,0.00,VWS V14.01,2013-03-08 08:00:00,
2013-03-08 03:01:00,49.7,48.3,30.08,NE,42,0.0,0.0,95,0.00,,---,0.00,VWS V14.01,2013-03-08 08:01:00,
2013-03-08 03:06:00,49.7,48.3,30.08,NE,42,0.0,0.0,95,0.00,,---,0.00,VWS V14.01,2013-03-08 08:06:00,
2013-03-08 03:11:00,49.7,48.3,30.08,NE,42,0.0,0.0,95,0.00,,---,0.00,VWS V14.01,2013-03-08 08:11:00,
2013-03-08 03:16:00,49.6,48.2,30.08,NE,42,0.0,0.0,95,0.00,,---,0.00,VWS V14.01,2013-03-08 08:16:00,
2013-03-08 03:21:00,49.4,48.0,30.08,NE,42,0.0,0.0,95,0.00,,---,0.00,VWS V14.01,2013-03-08 08:21:00,
2013-03-08 03:26:00,49.2,47.8,30.09,NE,42,0.0,0.0,95,0.00,,---,0.00,VWS V14.01,2013-03-08 08:26:00,
2013-03-08 03:30:00,48.4,47.3,30.08,NE,42,0.0,0.0,96,0.00,,---,0.00,VWS V14.01,2013-03-08 08:30:00,
2013-03-08 03:31:00,49.1,47.7,30.08,NE,42,0.0,0.0,95,0.00,,---,0.00,VWS V14.01,2013-03-08 08:31:00,
2013-03-08 03:36:00,48.9,47.5,30.08,NE,42,0.0,0.0,95,0.00,,---,0.00,VWS V14.01,2013-03-08 08:36:00,
2013-03-08 03:41:00,48.8,47.4,30.08,NE,42,0.0,0.0,95,0.00,,---,0.00,VWS V14.01,2013-03-08 08:41:00,
2013-03-08 03:46:00,48.7,47.3,30.08,NE,42,0.0,0.0,95,0.00,,---,0.00,VWS V14.01,2013-03-08 08:46:00,
2013-03-08 03:51:00,48.6,47.5,30.08,NE,42,0.0,0.0,96,0.00,,---,0.00,VWS V14.01,2013-03-08 08:51:00,
2013-03-08 03:56:00,48.6,47.5,30.08,NE,42,0.0,0.0,96,0.00,,---,0.00,VWS V14.01,2013-03-08 08:56:00,
2013-03-08 04:00:00,47.8,46.7,30.08,NE,42,0.0,0.0,96,0.00,,---,0.00,VWS V14.01,2013-03-08 09:00:00,
2013-03-08 04:01:00,48.5,47.4,30.08,NE,42,0.0,0.0,96,0.00,,---,0.00,VWS V14.01,2013-03-08 09:01:00,
2013-03-08 04:06:00,48.4,47.3,30.08,NE,42,0.0,0.0,96,0.00,,---,0.00,VWS V14.01,2013-03-08 09:06:00,
2013-03-08 04:11:00,48.3,46.9,30.08,NE,42,0.0,0.0,95,0.00,,---,0.00,VWS V14.01,2013-03-08 09:11:00,
2013-03-08 04:16:00,48.4,47.3,30.08,NE,42,0.0,0.0,96,0.00,,---,0.00,VWS V14.01,2013-03-08 09:16:00,
2013-03-08 04:21:00,48.5,47.4,30.08,NE,42,0.0,0.0,96,0.00,,---,0.00,VWS V14.01,2013-03-08 09:21:00,
2013-03-08 04:26:00,48.5,47.4,30.08,NE,42,0.0,0.0,96,0.00,,---,0.00,VWS V14.01,2013-03-08 09:26:00,
2013-03-08 04:30:00,47.8,46.7,30.09,NE,42,0.0,0.0,96,0.00,,---,0.00,VWS V14.01,2013-03-08 09:30:00,
2013-03-08 04:31:00,48.4,47.3,30.08,NE,42,0.0,0.0,96,0.00,,---,0.00,VWS V14.01,2013-03-08 09:31:00,
2013-03-08 04:36:00,48.3,47.2,30.08,NE,42,0.0,0.0,96,0.00,,---,0.00,VWS V14.01,2013-03-08 09:36:00,
2013-03-08 04:41:00,48.2,47.1,30.08,NE,42,0.0,0.0,96,0.00,,---,0.00,VWS V14.01,2013-03-08 09:41:00,
2013-03-08 04:46:00,48.0,46.9,30.08,NE,42,0.0,0.0,96,0.00,,---,0.00,VWS V14.01,2013-03-08 09:46:00,
2013-03-08 04:51:00,47.9,46.8,30.08,NE,42,0.0,0.0,96,0.00,,---,0.00,VWS V14.01,2013-03-08 09:51:00,
2013-03-08 04:56:00,47.9,46.8,30.08,NE,42,0.0,0.0,96,0.00,,---,0.00,VWS V14.01,2013-03-08 09:56:00,
2013-03-08 05:00:00,48.4,47.6,30.09,NE,42,0.0,1.0,97,0.00,,---,0.00,VWS V14.01,2013-03-08 10:00:00,
2013-03-08 05:01:00,47.8,46.7,30.08,NE,42,0.0,0.0,96,0.00,,---,0.00,VWS V14.01,2013-03-08 10:01:00,
2013-03-08 05:06:00,47.8,46.7,30.08,NE,42,0.0,0.0,96,0.00,,---,0.00,VWS V14.01,2013-03-08 10:06:00,
2013-03-08 05:11:00,47.7,46.6,30.08,NE,42,0.0,0.0,96,0.00,,---,0.00,VWS V14.01,2013-03-08 10:11:00,
2013-03-08 05:16:00,47.6,46.5,30.08,NE,42,0.0,0.0,96,0.00,,---,0.00,VWS V14.01,2013-03-08 10:16:00,
2013-03-08 05:21:00,47.7,46.6,30.08,NE,42,0.0,0.0,96,0.00,,---,0.00,VWS V14.01,2013-03-08 10:21:00,
2013-03-08 05:26:00,47.7,46.6,30.09,NE,42,0.0,0.0,96,0.00,,---,0.00,VWS V14.01,2013-03-08 10:26:00,
2013-03-08 05:30:00,49.9,48.8,30.10,North,355,0.0,1.0,96,0.00,,---,0.00,VWS V14.01,2013-03-08 10:30:00,
2013-03-08 05:31:00,47.9,46.8,30.09,NE,42,0.0,0.0,96,0.00,,---,0.00,VWS V14.01,2013-03-08 10:31:00,
2013-03-08 05:36:00,47.9,46.8,30.09,NE,42,0.0,0.0,96,0.00,,---,0.00,VWS V14.01,2013-03-08 10:36:00,
2013-03-08 05:41:00,47.9,46.8,30.09,NE,42,0.0,0.0,96,0.00,,---,0.00,VWS V14.01,2013-03-08 10:41:00,
2013-03-08 05:46:00,47.9,46.8,30.09,NE,42,0.0,0.0,96,0.00,,---,0.00,VWS V14.01,2013-03-08 10:46:00,
2013-03-08 05:51:00,48.0,46.9,30.09,NE,42,0.0,0.0,96,0.00,,---,0.00,VWS V14.01,2013-03-08 10:51:00,
2013-03-08 05:56:00,48.1,47.0,30.09,NE,42,0.0,0.0,96,0.00,,---,0.00,VWS V14.01,2013-03-08 10:56:00,
2013-03-08 06:00:00,50.3,48.6,30.11,NNW,338,0.0,1.0,94,0.00,,---,0.00,VWS V14.01,2013-03-08 11:00:00,
2013-03-08 06:01:00,48.5,47.7,30.10,NE,42,0.0,0.0,97,0.00,,---,0.00,VWS V14.01,2013-03-08 11:01:00,
2013-03-08 06:06:00,48.7,47.6,30.10,NE,42,0.0,0.0,96,0.00,,---,0.00,VWS V14.01,2013-03-08 11:06:00,
2013-03-08 06:11:00,48.8,48.0,30.10,NE,42,0.0,0.0,97,0.00,,---,0.00,VWS V14.01,2013-03-08 11:11:00,
2013-03-08 06:16:00,49.1,48.0,30.10,North,355,1.0,1.0,96,0.00,,---,0.00,VWS V14.01,2013-03-08 11:16:00,
2013-03-08 06:21:00,49.4,48.6,30.10,North,355,0.0,1.0,97,0.00,,---,0.00,VWS V14.01,2013-03-08 11:21:00,
2013-03-08 06:26:00,49.7,48.6,30.10,North,355,0.0,1.0,96,0.00,,---,0.00,VWS V14.01,2013-03-08 11:26:00,
2013-03-08 06:30:00,52.9,50.3,30.12,NNW,338,0.0,1.0,91,0.00,,---,0.00,VWS V14.01,2013-03-08 11:30:00,
2013-03-08 06:31:00,49.9,48.8,30.10,North,355,0.0,0.0,96,0.00,,---,0.00,VWS V14.01,2013-03-08 11:31:00,
2013-03-08 06:36:00,50.0,48.6,30.10,North,355,0.0,0.0,95,0.00,,---,0.00,VWS V14.01,2013-03-08 11:36:00,
2013-03-08 06:40:00,49.9,48.5,30.11,North,355,0.0,0.0,95,0.00,,---,0.00,VWS V14.01,2013-03-08 11:40:00,
2013-03-08 06:45:00,49.8,48.4,30.10,NNW,334,0.0,1.0,95,0.00,,---,0.00,VWS V14.01,2013-03-08 11:45:00,
2013-03-08 06:50:00,50.0,48.6,30.11,NNW,334,0.0,1.0,95,0.00,,---,0.00,VWS V14.01,2013-03-08 11:50:00,
2013-03-08 06:55:00,50.2,48.5,30.11,NNW,338,0.0,1.0,94,0.00,,---,0.00,VWS V14.01,2013-03-08 11:55:00,
2013-03-08 07:00:00,50.3,48.6,30.11,NNW,338,1.0,1.0,94,0.00,,---,0.00,VWS V14.01,2013-03-08 12:00:00,
2013-03-08 07:05:00,50.5,48.8,30.11,NNW,338,0.0,1.0,94,0.00,,---,0.00,VWS V14.01,2013-03-08 12:05:00,
2013-03-08 07:10:00,50.8,49.1,30.12,NNW,338,0.0,1.0,94,0.00,,---,0.00,VWS V14.01,2013-03-08 12:10:00,
2013-03-08 07:15:00,51.2,49.2,30.11,NNW,338,0.0,1.0,93,0.00,,---,0.00,VWS V14.01,2013-03-08 12:15:00,
2013-03-08 07:20:00,51.6,49.7,30.12,NNW,338,0.0,1.0,93,0.00,,---,0.00,VWS V14.01,2013-03-08 12:20:00,
2013-03-08 07:25:00,52.3,50.0,30.11,NNW,338,0.0,1.0,92,0.00,,---,0.00,VWS V14.01,2013-03-08 12:25:00,
2013-03-08 07:30:00,53.0,50.5,30.12,NNW,336,1.0,1.0,91,0.00,,---,0.00,VWS V14.01,2013-03-08 12:30:00,
2013-03-08 07:35:00,53.8,50.6,30.12,NW,311,1.0,3.0,89,0.00,,---,0.00,VWS V14.01,2013-03-08 12:35:00,
2013-03-08 07:40:00,54.6,51.1,30.12,NNW,348,1.0,3.0,88,0.00,,---,0.00,VWS V14.01,2013-03-08 12:40:00,
2013-03-08 07:45:00,55.4,51.6,30.12,NNW,331,1.0,3.0,87,0.00,,---,0.00,VWS V14.01,2013-03-08 12:45:00,
2013-03-08 07:54:00,56.6,52.2,30.13,NW,323,3.0,3.0,85,0.00,,---,0.00,VWS V14.01,2013-03-08 12:54:00,
2013-03-08 07:59:00,57.1,52.3,30.13,NW,315,2.0,3.0,84,0.00,,---,0.00,VWS V14.01,2013-03-08 12:59:00,
2013-03-08 08:00:00,63.5,53.9,30.14,WNW,303,3.0,5.0,71,0.00,,---,0.00,VWS V14.01,2013-03-08 13:00:00,
2013-03-08 08:04:00,57.7,52.6,30.13,NW,319,1.0,4.0,83,0.00,,---,0.00,VWS V14.01,2013-03-08 13:04:00,
2013-03-08 08:09:00,58.3,52.8,30.13,NNW,338,2.0,4.0,82,0.00,,---,0.00,VWS V14.01,2013-03-08 13:09:00,
2013-03-08 08:14:00,58.9,53.1,30.14,NW,305,2.0,4.0,81,0.00,,---,0.00,VWS V14.01,2013-03-08 13:14:00,
2013-03-08 08:19:00,59.5,53.3,30.14,WNW,299,1.0,4.0,80,0.00,,---,0.00,VWS V14.01,2013-03-08 13:19:00,
2013-03-08 08:24:00,60.0,53.1,30.14,NW,313,2.0,4.0,78,0.00,,---,0.00,VWS V14.01,2013-03-08 13:24:00,
2013-03-08 08:29:00,60.4,53.5,30.13,NW,324,3.0,4.0,78,0.00,,---,0.00,VWS V14.01,2013-03-08 13:29:00,
2013-03-08 08:30:00,65.5,52.2,30.15,NW,309,2.0,7.0,62,0.00,,---,0.00,VWS V14.01,2013-03-08 13:30:00,
2013-03-08 08:34:00,60.8,53.5,30.14,NNW,332,2.0,4.0,77,0.00,,---,0.00,VWS V14.01,2013-03-08 13:34:00,
2013-03-08 08:39:00,61.3,54.0,30.14,North,350,1.0,5.0,77,0.00,,---,0.00,VWS V14.01,2013-03-08 13:39:00,
2013-03-08 08:44:00,61.7,53.3,30.14,NW,305,2.0,5.0,74,0.00,,---,0.00,VWS V14.01,2013-03-08 13:44:00,
2013-03-08 08:49:00,62.3,54.7,30.14,NNE,26,1.0,5.0,76,0.00,,---,0.00,VWS V14.01,2013-03-08 13:49:00,
2013-03-08 08:54:00,63.0,53.8,30.14,NW,323,0.0,5.0,72,0.00,,---,0.00,VWS V14.01,2013-03-08 13:54:00,
2013-03-08 08:59:00,63.5,53.9,30.14,NW,311,4.0,5.0,71,0.00,,---,0.00,VWS V14.01,2013-03-08 13:59:00,
2013-03-08 09:00:00,67.4,51.2,30.15,NW,317,2.0,6.0,56,0.00,,---,0.00,VWS V14.01,2013-03-08 14:00:00,
2013-03-08 09:04:00,63.6,53.3,30.14,NNE,25,0.0,7.0,69,0.00,,---,0.00,VWS V14.01,2013-03-08 14:04:00,
2013-03-08 09:09:00,64.2,53.4,30.14,NW,318,1.0,7.0,68,0.00,,---,0.00,VWS V14.01,2013-03-08 14:09:00,
2013-03-08 09:14:00,64.6,52.2,30.14,NNW,329,2.0,7.0,64,0.00,,---,0.00,VWS V14.01,2013-03-08 14:14:00,
2013-03-08 09:19:00,64.9,52.0,30.14,NNW,327,1.0,7.0,63,0.00,,---,0.00,VWS V14.01,2013-03-08 14:19:00,
2013-03-08 09:24:00,65.4,51.6,30.15,NNW,335,0.0,7.0,61,0.00,,---,0.00,VWS V14.01,2013-03-08 14:24:00,
2013-03-08 09:29:00,65.5,51.7,30.15,NW,316,2.0,7.0,61,0.00,,---,0.00,VWS V14.01,2013-03-08 14:29:00,
2013-03-08 09:30:00,69.7,49.2,30.15,NW,315,3.0,5.0,48,0.00,,---,0.00,VWS V14.01,2013-03-08 14:30:00,
2013-03-08 09:34:00,65.8,52.4,30.14,NW,312,3.0,5.0,62,0.00,,---,0.00,VWS V14.01,2013-03-08 14:34:00,
2013-03-08 09:39:00,66.2,51.9,30.14,WNW,284,3.0,5.0,60,0.00,,---,0.00,VWS V14.01,2013-03-08 14:39:00,
2013-03-08 09:44:00,66.4,50.2,30.15,NW,318,3.0,5.0,56,0.00,,---,0.00,VWS V14.01,2013-03-08 14:44:00,
2013-03-08 09:49:00,66.7,52.4,30.14,NE,48,3.0,5.0,60,0.00,,---,0.00,VWS V14.01,2013-03-08 14:49:00,
2013-03-08 09:54:00,67.2,51.0,30.15,NW,304,4.0,5.0,56,0.00,,---,0.00,VWS V14.01,2013-03-08 14:54:00,
2013-03-08 09:59:00,67.4,50.7,30.15,NW,317,3.0,6.0,55,0.00,,---,0.00,VWS V14.01,2013-03-08 14:59:00,
2013-03-08 10:00:00,70.9,50.2,30.13,ENE,67,2.0,5.0,48,0.00,,---,0.00,VWS V14.01,2013-03-08 15:00:00,
2013-03-08 10:04:00,67.8,50.6,30.15,North,5,1.0,4.0,54,0.00,,---,0.00,VWS V14.01,2013-03-08 15:04:00,
2013-03-08 10:09:00,68.3,51.5,30.15,ENE,63,4.0,4.0,55,0.00,,---,0.00,VWS V14.01,2013-03-08 15:09:00,
2013-03-08 10:14:00,68.6,51.8,30.15,NW,315,3.0,4.0,55,0.00,,---,0.00,VWS V14.01,2013-03-08 15:14:00,
2013-03-08 10:19:00,68.9,49.0,30.15,NE,52,1.0,5.0,49,0.00,,---,0.00,VWS V14.01,2013-03-08 15:19:00,
2013-03-08 10:24:00,69.6,49.1,30.15,ENE,61,3.0,5.0,48,0.00,,---,0.00,VWS V14.01,2013-03-08 15:24:00,
2013-03-08 10:29:00,69.8,49.2,30.15,NW,315,1.0,5.0,48,0.00,,---,0.00,VWS V14.01,2013-03-08 15:29:00,
2013-03-08 10:30:00,70.5,45.0,30.13,WNW,287,2.0,6.0,40,0.00,,---,0.00,VWS V14.01,2013-03-08 15:30:00,
2013-03-08 10:34:00,69.6,47.9,30.14,WNW,301,2.0,5.0,46,0.00,,---,0.00,VWS V14.01,2013-03-08 15:34:00,
2013-03-08 10:39:00,69.6,50.2,30.14,ENE,59,1.0,5.0,50,0.00,,---,0.00,VWS V14.01,2013-03-08 15:39:00,
2013-03-08 10:44:00,70.0,50.0,30.14,NW,313,0.0,5.0,49,0.00,,---,0.00,VWS V14.01,2013-03-08 15:44:00,
2013-03-08 10:49:00,70.4,48.7,30.14,ENE,69,3.0,5.0,46,0.00,,---,0.00,VWS V14.01,2013-03-08 15:49:00,
2013-03-08 10:54:00,70.7,49.5,30.13,NNW,333,3.0,5.0,47,0.00,,---,0.00,VWS V14.01,2013-03-08 15:54:00,
2013-03-08 10:59:00,70.9,50.8,30.13,NE,46,1.0,5.0,49,0.00,,---,0.00,VWS V14.01,2013-03-08 15:59:00,
2013-03-08 11:00:00,71.6,48.6,30.12,NNW,328,2.0,6.0,44,0.00,,---,0.00,VWS V14.01,2013-03-08 16:00:00,
2013-03-08 11:04:00,71.1,48.7,30.13,East,80,0.0,4.0,45,0.00,,---,0.00,VWS V14.01,2013-03-08 16:04:00,
2013-03-08 11:09:00,71.2,48.2,30.13,NW,324,1.0,4.0,44,0.00,,---,0.00,VWS V14.01,2013-03-08 16:09:00,
2013-03-08 11:14:00,71.2,47.6,30.13,NNW,341,2.0,5.0,43,0.00,,---,0.00,VWS V14.01,2013-03-08 16:14:00,
2013-03-08 11:19:00,70.6,45.8,30.13,NNW,338,3.0,5.0,41,0.00,,---,0.00,VWS V14.01,2013-03-08 16:19:00,
2013-03-08 11:24:00,70.6,46.4,30.13,NNE,31,3.0,6.0,42,0.00,,---,0.00,VWS V14.01,2013-03-08 16:24:00,
2013-03-08 11:29:00,70.5,45.0,30.13,NW,312,2.0,6.0,40,0.00,,---,0.00,VWS V14.01,2013-03-08 16:29:00,
2013-03-08 11:30:00,72.4,46.7,30.10,NW,313,4.0,6.0,40,0.00,,---,0.00,VWS V14.01,2013-03-08 16:30:00,
2013-03-08 11:34:00,70.5,47.0,30.13,NW,323,0.0,5.0,43,0.00,,---,0.00,VWS V14.01,2013-03-08 16:34:00,
2013-03-08 11:39:00,71.0,48.6,30.13,NNW,344,0.0,5.0,45,0.00,,---,0.00,VWS V14.01,2013-03-08 16:39:00,
2013-03-08 11:44:00,71.9,47.0,30.13,NNW,336,4.0,6.0,41,0.00,,---,0.00,VWS V14.01,2013-03-08 16:44:00,
2013-03-08 11:49:00,72.0,49.5,30.13,NE,36,0.0,6.0,45,0.00,,---,0.00,VWS V14.01,2013-03-08 16:49:00,
2013-03-08 11:54:00,71.7,47.4,30.12,NW,313,2.0,6.0,42,0.00,,---,0.00,VWS V14.01,2013-03-08 16:54:00,
2013-03-08 11:59:00,71.6,48.6,30.12,NNW,329,2.0,6.0,44,0.00,,---,0.00,VWS V14.01,2013-03-08 16:59:00,
2013-03-08 12:00:00,73.3,48.8,30.09,NE,53,2.0,6.0,42,0.00,,---,0.00,VWS V14.01,2013-03-08 17:00:00,
2013-03-08 12:04:00,71.8,48.7,30.11,NE,44,2.0,5.0,44,0.00,,---,0.00,VWS V14.01,2013-03-08 17:04:00,
2013-03-08 12:09:00,72.2,47.9,30.11,NNW,332,4.0,6.0,42,0.00,,---,0.00,VWS V14.01,2013-03-08 17:09:00,
2013-03-08 12:14:00,71.8,46.2,30.11,NW,311,2.0,6.0,40,0.00,,---,0.00,VWS V14.01,2013-03-08 17:14:00,
2013-03-08 12:19:00,71.6,46.7,30.11,WNW,302,2.0,6.0,41,0.00,,---,0.00,VWS V14.01,2013-03-08 17:19:00,
2013-03-08 12:24:00,71.8,49.3,30.10,East,93,1.0,6.0,45,0.00,,---,0.00,VWS V14.01,2013-03-08 17:24:00,
2013-03-08 12:29:00,72.4,49.3,30.10,NW,312,3.0,6.0,44,0.00,,---,0.00,VWS V14.01,2013-03-08 17:29:00,
2013-03-08 12:30:00,73.7,46.5,30.07,NW,314,4.0,6.0,38,0.00,,---,0.00,VWS V14.01,2013-03-08 17:30:00,
2013-03-08 12:34:00,72.2,47.9,30.10,NNW,338,0.0,4.0,42,0.00,,---,0.00,VWS V14.01,2013-03-08 17:34:00,
2013-03-08 12:39:00,72.7,47.7,30.10,NNW,334,2.0,6.0,41,0.00,,---,0.00,VWS V14.01,2013-03-08 17:39:00,
2013-03-08 12:44:00,73.0,47.3,30.10,NNE,12,1.0,6.0,40,0.00,,---,0.00,VWS V14.01,2013-03-08 17:44:00,
2013-03-08 12:49:00,73.1,49.3,30.09,North,355,1.0,6.0,43,0.00,,---,0.00,VWS V14.01,2013-03-08 17:49:00,
2013-03-08 12:54:00,73.2,45.4,30.09,NNW,330,3.0,6.0,37,0.00,,---,0.00,VWS V14.01,2013-03-08 17:54:00,
2013-03-08 12:59:00,73.2,48.8,30.09,ENE,70,3.0,6.0,42,0.00,,---,0.00,VWS V14.01,2013-03-08 17:59:00,
2013-03-08 13:00:00,75.3,49.3,30.07,NE,34,1.0,7.0,40,0.00,,---,0.00,VWS V14.01,2013-03-08 18:00:00,
2013-03-08 13:04:00,73.3,46.2,30.08,NW,315,3.0,6.0,38,0.00,,---,0.00,VWS V14.01,2013-03-08 18:04:00,
2013-03-08 13:09:00,73.4,47.0,30.08,ENE,61,4.0,6.0,39,0.00,,---,0.00,VWS V14.01,2013-03-08 18:09:00,
2013-03-08 13:14:00,73.5,45.7,30.08,NNW,336,2.0,6.0,37,0.00,,---,0.00,VWS V14.01,2013-03-08 18:14:00,
2013-03-08 13:19:00,73.3,45.5,30.08,NW,318,1.0,6.0,37,0.00,,---,0.00,VWS V14.01,2013-03-08 18:19:00,
2013-03-08 13:24:00,73.3,46.2,30.08,NNW,327,2.0,6.0,38,0.00,,---,0.00,VWS V14.01,2013-03-08 18:24:00,
2013-03-08 13:29:00,73.7,47.2,30.07,NW,321,3.0,6.0,39,0.00,,---,0.00,VWS V14.01,2013-03-08 18:29:00,
2013-03-08 13:30:00,75.6,44.5,30.06,ENE,65,3.0,6.0,33,0.00,,---,0.00,VWS V14.01,2013-03-08 18:30:00,
2013-03-08 13:34:00,73.5,44.9,30.08,NW,312,1.0,5.0,36,0.00,,---,0.00,VWS V14.01,2013-03-08 18:34:00,
2013-03-08 13:39:00,73.9,46.7,30.07,NW,325,1.0,5.0,38,0.00,,---,0.00,VWS V14.01,2013-03-08 18:39:00,
2013-03-08 13:44:00,74.5,48.6,30.07,NNW,346,2.0,5.0,40,0.00,,---,0.00,VWS V14.01,2013-03-08 18:44:00,
2013-03-08 13:49:00,75.0,44.8,30.07,NNW,330,1.0,5.0,34,0.00,,---,0.00,VWS V14.01,2013-03-08 18:49:00,
2013-03-08 13:54:00,75.1,47.8,30.07,ENE,61,2.0,5.0,38,0.00,,---,0.00,VWS V14.01,2013-03-08 18:54:00,
2013-03-08 13:59:00,75.3,46.5,30.07,NNE,28,3.0,7.0,36,0.00,,---,0.00,VWS V14.01,2013-03-08 18:59:00,
2013-03-08 14:00:00,76.0,46.4,30.05,NNE,32,0.0,8.0,35,0.00,,---,0.00,VWS V14.01,2013-03-08 19:00:00,
2013-03-08 14:04:00,75.2,44.9,30.07,West,267,0.0,4.0,34,0.00,,---,0.00,VWS V14.01,2013-03-08 19:04:00,
2013-03-08 14:09:00,75.3,45.8,30.07,ESE,121,2.0,6.0,35,0.00,,---,0.00,VWS V14.01,2013-03-08 19:09:00,
2013-03-08 14:14:00,75.4,47.3,30.06,NNE,32,1.0,6.0,37,0.00,,---,0.00,VWS V14.01,2013-03-08 19:14:00,
2013-03-08 14:19:00,75.6,46.0,30.06,East,86,0.0,6.0,35,0.00,,---,0.00,VWS V14.01,2013-03-08 19:19:00,
2013-03-08 14:24:00,75.9,44.0,30.06,ESE,111,2.0,6.0,32,0.00,,---,0.00,VWS V14.01,2013-03-08 19:24:00,
2013-03-08 14:29:00,75.6,46.0,30.06,NE,51,6.0,6.0,35,0.00,,---,0.00,VWS V14.01,2013-03-08 19:29:00,
2013-03-08 14:30:00,73.5,52.1,30.04,ESE,120,3.0,7.0,47,0.00,,---,0.00,VWS V14.01,2013-03-08 19:30:00,
2013-03-08 14:34:00,75.4,45.1,30.06,NE,38,2.0,4.0,34,0.00,,---,0.00,VWS V14.01,2013-03-08 19:34:00,
2013-03-08 14:39:00,75.5,45.2,30.06,East,82,5.0,8.0,34,0.00,,---,0.00,VWS V14.01,2013-03-08 19:39:00,
2013-03-08 14:44:00,75.2,46.4,30.06,NNE,30,2.0,8.0,36,0.00,,---,0.00,VWS V14.01,2013-03-08 19:44:00,
2013-03-08 14:49:00,75.5,46.0,30.05,NNE,33,1.0,8.0,35,0.00,,---,0.00,VWS V14.01,2013-03-08 19:49:00,
2013-03-08 14:54:00,75.9,47.1,30.05,ENE,60,0.0,8.0,36,0.00,,---,0.00,VWS V14.01,2013-03-08 19:54:00,
2013-03-08 14:59:00,76.0,46.4,30.05,NNE,32,1.0,8.0,35,0.00,,---,0.00,VWS V14.01,2013-03-08 19:59:00,
2013-03-08 15:00:00,73.3,52.5,30.05,NE,56,1.0,8.0,48,0.00,,---,0.00,VWS V14.01,2013-03-08 20:00:00,
2013-03-08 15:04:00,76.2,46.6,30.05,NE,52,3.0,3.0,35,0.00,,---,0.00,VWS V14.01,2013-03-08 20:04:00,
2013-03-08 15:09:00,76.0,53.8,30.05,SSE,159,3.0,5.0,46,0.00,,---,0.00,VWS V14.01,2013-03-08 20:09:00,
2013-03-08 15:14:00,75.3,52.5,30.05,ENE,65,4.0,6.0,45,0.00,,---,0.00,VWS V14.01,2013-03-08 20:14:00,
2013-03-08 15:19:00,74.7,52.6,30.05,East,85,3.0,6.0,46,0.00,,---,0.00,VWS V14.01,2013-03-08 20:19:00,
2013-03-08 15:24:00,74.1,52.6,30.04,ESE,105,2.0,7.0,47,0.00,,---,0.00,VWS V14.01,2013-03-08 20:24:00,
2013-03-08 15:29:00,73.6,52.2,30.04,East,93,1.0,7.0,47,0.00,,---,0.00,VWS V14.01,2013-03-08 20:29:00,
2013-03-08 15:30:00,72.2,51.4,30.05,ENE,60,1.0,8.0,48,0.00,,---,0.00,VWS V14.01,2013-03-08 20:30:00,
2013-03-08 15:34:00,73.4,53.7,30.04,ESE,103,2.0,7.0,50,0.00,,---,0.00,VWS V14.01,2013-03-08 20:34:00,
2013-03-08 15:39:00,73.9,51.8,30.05,ENE,77,2.0,7.0,46,0.00,,---,0.00,VWS V14.01,2013-03-08 20:39:00,
2013-03-08 15:44:00,74.0,52.5,30.04,NE,46,3.0,7.0,47,0.00,,---,0.00,VWS V14.01,2013-03-08 20:44:00,
2013-03-08 15:49:00,73.6,52.7,30.04,NE,55,3.0,8.0,48,0.00,,---,0.00,VWS V14.01,2013-03-08 20:49:00,
2013-03-08 15:54:00,73.4,52.5,30.04,East,98,2.0,8.0,48,0.00,,---,0.00,VWS V14.01,2013-03-08 20:54:00,
2013-03-08 15:59:00,73.4,52.5,30.05,East,79,3.0,8.0,48,0.00,,---,0.00,VWS V14.01,2013-03-08 20:59:00,
2013-03-08 16:00:00,71.1,52.1,30.05,ENE,64,3.0,7.0,51,0.00,,---,0.00,VWS V14.01,2013-03-08 21:00:00,
2013-03-08 16:04:00,73.1,52.8,30.04,ENE,69,1.0,7.0,49,0.00,,---,0.00,VWS V14.01,2013-03-08 21:04:00,
2013-03-08 16:09:00,73.0,52.2,30.05,ENE,69,1.0,7.0,48,0.00,,---,0.00,VWS V14.01,2013-03-08 21:09:00,
2013-03-08 16:14:00,72.7,53.0,30.05,NE,46,3.0,8.0,50,0.00,,---,0.00,VWS V14.01,2013-03-08 21:14:00,
2013-03-08 16:19:00,72.5,52.3,30.05,NE,44,3.0,8.0,49,0.00,,---,0.00,VWS V14.01,2013-03-08 21:19:00,
2013-03-08 16:24:00,72.2,52.0,30.05,East,94,1.0,8.0,49,0.00,,---,0.00,VWS V14.01,2013-03-08 21:24:00,
2013-03-08 16:29:00,72.2,51.4,30.05,ENE,69,3.0,8.0,48,0.00,,---,0.00,VWS V14.01,2013-03-08 21:29:00,
2013-03-08 16:30:00,68.7,51.4,30.07,ESE,121,2.0,6.0,54,0.00,,---,0.00,VWS V14.01,2013-03-08 21:30:00,
2013-03-08 16:34:00,72.1,51.9,30.05,NNE,22,0.0,3.0,49,0.00,,---,0.00,VWS V14.01,2013-03-08 21:34:00,
2013-03-08 16:39:00,72.2,52.0,30.05,NE,51,1.0,3.0,49,0.00,,---,0.00,VWS V14.01,2013-03-08 21:39:00,
2013-03-08 16:44:00,72.1,51.9,30.05,ESE,109,2.0,5.0,49,0.00,,---,0.00,VWS V14.01,2013-03-08 21:44:00,
2013-03-08 16:49:00,72.0,51.8,30.05,East,79,1.0,5.0,49,0.00,,---,0.00,VWS V14.01,2013-03-08 21:49:00,
2013-03-08 16:54:00,71.7,52.1,30.05,ESE,105,2.0,5.0,50,0.00,,---,0.00,VWS V14.01,2013-03-08 21:54:00,
2013-03-08 16:59:00,71.2,52.2,30.05,East,82,0.0,7.0,51,0.00,,---,0.00,VWS V14.01,2013-03-08 21:59:00,
2013-03-08 17:00:00,67.0,51.3,30.07,NE,49,1.0,7.0,57,0.00,,---,0.00,VWS V14.01,2013-03-08 22:00:00,
2013-03-08 17:04:00,70.9,52.4,30.06,East,79,2.0,5.0,52,0.00,,---,0.00,VWS V14.01,2013-03-08 22:04:00,
2013-03-08 17:09:00,70.7,52.2,30.06,NE,38,3.0,6.0,52,0.00,,---,0.00,VWS V14.01,2013-03-08 22:09:00,
2013-03-08 17:14:00,70.2,51.2,30.06,NE,53,2.0,6.0,51,0.00,,---,0.00,VWS V14.01,2013-03-08 22:14:00,
2013-03-08 17:19:00,69.6,51.2,30.06,North,11,2.0,6.0,52,0.00,,---,0.00,VWS V14.01,2013-03-08 22:19:00,
2013-03-08 17:24:00,69.2,50.8,30.06,NE,35,0.0,6.0,52,0.00,,---,0.00,VWS V14.01,2013-03-08 22:24:00,
2013-03-08 17:29:00,68.8,51.5,30.07,ENE,61,3.0,6.0,54,0.00,,---,0.00,VWS V14.01,2013-03-08 22:29:00,
2013-03-08 17:30:00,65.4,51.2,30.07,ENE,72,1.0,5.0,60,0.00,,---,0.00,VWS V14.01,2013-03-08 22:30:00,
2013-03-08 17:34:00,68.5,51.7,30.07,ENE,65,0.0,4.0,55,0.00,,---,0.00,VWS V14.01,2013-03-08 22:34:00,
2013-03-08 17:39:00,68.2,51.4,30.07,NE,56,2.0,4.0,55,0.00,,---,0.00,VWS V14.01,2013-03-08 22:39:00,
2013-03-08 17:44:00,67.9,51.6,30.07,NNW,343,3.0,4.0,56,0.00,,---,0.00,VWS V14.01,2013-03-08 22:44:00,
2013-03-08 17:49:00,67.6,51.4,30.07,NE,52,2.0,7.0,56,0.00,,---,0.00,VWS V14.01,2013-03-08 22:49:00,
2013-03-08 17:54:00,67.4,51.7,30.07,East,80,1.0,7.0,57,0.00,,---,0.00,VWS V14.01,2013-03-08 22:54:00,
2013-03-08 17:59:00,67.1,51.4,30.07,NE,48,0.0,7.0,57,0.00,,---,0.00,VWS V14.01,2013-03-08 22:59:00,
2013-03-08 18:00:00,64.2,51.8,30.08,WNW,286,0.0,3.0,64,0.00,,---,0.00,VWS V14.01,2013-03-08 23:00:00,
2013-03-08 18:04:00,66.8,51.6,30.07,NE,55,1.0,3.0,58,0.00,,---,0.00,VWS V14.01,2013-03-08 23:04:00,
2013-03-08 18:09:00,66.6,51.4,30.07,NNE,22,1.0,3.0,58,0.00,,---,0.00,VWS V14.01,2013-03-08 23:09:00,
2013-03-08 18:14:00,66.3,51.6,30.07,NNE,28,0.0,3.0,59,0.00,,---,0.00,VWS V14.01,2013-03-08 23:14:00,
2013-03-08 18:19:00,66.0,51.3,30.07,North,11,0.0,5.0,59,0.00,,---,0.00,VWS V14.01,2013-03-08 23:19:00,
2013-03-08 18:24:00,65.8,51.5,30.07,NE,49,0.0,5.0,60,0.00,,---,0.00,VWS V14.01,2013-03-08 23:24:00,
2013-03-08 18:29:00,65.5,51.3,30.07,NNE,26,1.0,5.0,60,0.00,,---,0.00,VWS V14.01,2013-03-08 23:29:00,
2013-03-08 18:30:00,63.0,52.7,30.09,ENE,67,0.0,2.0,69,0.00,,---,0.00,VWS V14.01,2013-03-08 23:30:00,
2013-03-08 18:34:00,65.3,51.5,30.07,ENE,66,0.0,2.0,61,0.00,,---,0.00,VWS V14.01,2013-03-08 23:34:00,
2013-03-08 18:39:00,65.0,51.7,30.08,NE,46,1.0,3.0,62,0.00,,---,0.00,VWS V14.01,2013-03-08 23:39:00,
2013-03-08 18:44:00,64.8,51.5,30.08,North,5,0.0,3.0,62,0.00,,---,0.00,VWS V14.01,2013-03-08 23:44:00,
2013-03-08 18:49:00,64.6,51.7,30.08,ENE,71,0.0,3.0,63,0.00,,---,0.00,VWS V14.01,2013-03-08 23:49:00,
2013-03-08 18:54:00,64.4,52.0,30.08,NNW,342,0.0,3.0,64,0.00,,---,0.00,VWS V14.01,2013-03-08 23:54:00,
2013-03-08 18:59:00,64.3,51.9,30.08,WNW,286,0.0,3.0,64,0.00,,---,0.00,VWS V14.01,2013-03-08 23:59:00,
2013-03-08 19:00:00,61.7,52.6,30.10,NNW,344,0.0,1.0,72,0.00,,---,0.00,VWS V14.01,2013-03-09 00:00:00,
2013-03-08 19:04:00,64.0,52.0,30.08,NW,304,1.0,2.0,65,0.00,,---,0.00,VWS V14.01,2013-03-09 00:04:00,
2013-03-08 19:09:00,63.9,52.3,30.09,NW,305,1.0,2.0,66,0.00,,---,0.00,VWS V14.01,2013-03-09 00:09:00,
2013-03-08 19:14:00,63.7,52.1,30.09,NW,305,0.0,2.0,66,0.00,,---,0.00,VWS V14.01,2013-03-09 00:14:00,
2013-03-08 19:19:00,63.6,52.5,30.09,NW,304,0.0,2.0,67,0.00,,---,0.00,VWS V14.01,2013-03-09 00:19:00,
2013-03-08 19:24:00,63.3,52.6,30.09,ENE,67,0.0,2.0,68,0.00,,---,0.00,VWS V14.01,2013-03-09 00:24:00,
2013-03-08 19:29:00,63.1,52.8,30.09,ENE,67,0.0,2.0,69,0.00,,---,0.00,VWS V14.01,2013-03-09 00:29:00,
2013-03-08 19:30:00,59.6,52.0,30.10,NNW,344,0.0,0.0,76,0.00,,---,0.00,VWS V14.01,2013-03-09 00:30:00,
2013-03-08 19:34:00,62.8,52.5,30.09,NNW,344,0.0,1.0,69,0.00,,---,0.00,VWS V14.01,2013-03-09 00:34:00,
2013-03-08 19:39:00,62.6,52.7,30.09,NNW,344,0.0,1.0,70,0.00,,---,0.00,VWS V14.01,2013-03-09 00:39:00,
2013-03-08 19:44:00,62.4,52.5,30.09,NNW,344,0.0,1.0,70,0.00,,---,0.00,VWS V14.01,2013-03-09 00:44:00,
2013-03-08 19:49:00,62.1,52.6,30.10,NNW,344,0.0,1.0,71,0.00,,---,0.00,VWS V14.01,2013-03-09 00:49:00,
2013-03-08 19:54:00,61.9,52.8,30.10,NNW,344,0.0,1.0,72,0.00,,---,0.00,VWS V14.01,2013-03-09 00:54:00,
2013-03-08 19:59:00,61.7,52.6,30.10,NNW,344,0.0,1.0,72,0.00,,---,0.00,VWS V14.01,2013-03-09 00:59:00,
2013-03-08 20:00:00,57.8,51.7,30.11,NNW,344,0.0,0.0,80,0.00,,---,0.00,VWS V14.01,2013-03-09 01:00:00,
2013-03-08 20:04:00,61.4,52.7,30.10,NNW,344,0.0,0.0,73,0.00,,---,0.00,VWS V14.01,2013-03-09 01:04:00,
2013-03-08 20:09:00,61.1,52.8,30.10,NNW,344,0.0,0.0,74,0.00,,---,0.00,VWS V14.01,2013-03-09 01:09:00,
2013-03-08 20:14:00,60.8,52.8,30.10,NNW,344,0.0,0.0,75,0.00,,---,0.00,VWS V14.01,2013-03-09 01:14:00,
2013-03-08 20:19:00,60.4,52.5,30.10,NNW,344,0.0,0.0,75,0.00,,---,0.00,VWS V14.01,2013-03-09 01:19:00,
2013-03-08 20:24:00,60.1,52.2,30.10,NNW,344,0.0,0.0,75,0.00,,---,0.00,VWS V14.01,2013-03-09 01:24:00,
2013-03-08 20:29:00,59.7,52.1,30.10,NNW,344,0.0,0.0,76,0.00,,---,0.00,VWS V14.01,2013-03-09 01:29:00,
2013-03-08 20:30:00,56.4,51.3,30.11,NNW,344,0.0,0.0,83,0.00,,---,0.00,VWS V14.01,2013-03-09 01:30:00,
2013-03-08 20:34:00,59.4,52.2,30.10,NNW,344,0.0,0.0,77,0.00,,---,0.00,VWS V14.01,2013-03-09 01:34:00,
2013-03-08 20:39:00,59.0,52.2,30.10,NNW,344,0.0,0.0,78,0.00,,---,0.00,VWS V14.01,2013-03-09 01:39:00,
2013-03-08 20:44:00,58.7,52.2,30.10,NNW,344,0.0,0.0,79,0.00,,---,0.00,VWS V14.01,2013-03-09 01:44:00,
2013-03-08 20:49:00,58.4,51.9,30.11,NNW,344,0.0,0.0,79,0.00,,---,0.00,VWS V14.01,2013-03-09 01:49:00,
2013-03-08 20:54:00,58.1,52.0,30.11,NNW,344,0.0,0.0,80,0.00,,---,0.00,VWS V14.01,2013-03-09 01:54:00,
2013-03-08 20:59:00,57.9,51.8,30.11,NNW,344,0.0,0.0,80,0.00,,---,0.00,VWS V14.01,2013-03-09 01:59:00,
2013-03-08 21:00:00,54.8,50.7,30.11,NNW,344,0.0,0.0,86,0.00,,---,0.00,VWS V14.01,2013-03-09 02:00:00,
2013-03-08 21:04:00,57.6,51.8,30.11,NNW,344,0.0,0.0,81,0.00,,---,0.00,VWS V14.01,2013-03-09 02:04:00,
2013-03-08 21:09:00,57.4,51.6,30.11,NNW,344,0.0,0.0,81,0.00,,---,0.00,VWS V14.01,2013-03-09 02:09:00,
2013-03-08 21:14:00,57.1,51.7,30.12,NNW,344,0.0,0.0,82,0.00,,---,0.00,VWS V14.01,2013-03-09 02:14:00,
2013-03-08 21:19:00,56.9,51.5,30.12,NNW,344,0.0,0.0,82,0.00,,---,0.00,VWS V14.01,2013-03-09 02:19:00,
2013-03-08 21:24:00,56.7,51.6,30.12,NNW,344,0.0,0.0,83,0.00,,---,0.00,VWS V14.01,2013-03-09 02:24:00,
2013-03-08 21:28:00,56.5,51.4,30.11,NNW,344,0.0,0.0,83,0.00,,---,0.00,VWS V14.01,2013-03-09 02:28:00,
2013-03-08 21:30:00,54.1,50.3,30.11,NNW,344,0.0,0.0,87,0.00,,---,0.00,VWS V14.01,2013-03-09 02:30:00,
2013-03-08 21:33:00,56.2,51.1,30.11,NNW,344,0.0,0.0,83,0.00,,---,0.00,VWS V14.01,2013-03-09 02:33:00,
2013-03-08 21:38:00,55.9,51.1,30.11,NNW,344,0.0,0.0,84,0.00,,---,0.00,VWS V14.01,2013-03-09 02:38:00,
2013-03-08 21:43:00,55.6,50.8,30.11,NNW,344,0.0,0.0,84,0.00,,---,0.00,VWS V14.01,2013-03-09 02:43:00,
2013-03-08 21:48:00,55.3,50.6,30.11,NNW,344,0.0,0.0,84,0.00,,---,0.00,VWS V14.01,2013-03-09 02:48:00,
2013-03-08 21:53:00,55.1,50.7,30.11,NNW,344,0.0,0.0,85,0.00,,---,0.00,VWS V14.01,2013-03-09 02:53:00,
2013-03-08 21:58:00,54.9,50.8,30.11,NNW,344,0.0,0.0,86,0.00,,---,0.00,VWS V14.01,2013-03-09 02:58:00,
2013-03-08 22:00:00,53.5,49.7,30.11,NNW,344,0.0,0.0,87,0.00,,---,0.00,VWS V14.01,2013-03-09 03:00:00,
2013-03-08 22:03:00,54.7,50.6,30.11,NNW,344,0.0,0.0,86,0.00,,---,0.00,VWS V14.01,2013-03-09 03:03:00,
2013-03-08 22:08:00,54.5,50.4,30.11,NNW,344,0.0,0.0,86,0.00,,---,0.00,VWS V14.01,2013-03-09 03:08:00,
2013-03-08 22:13:00,54.4,50.6,30.12,NNW,344,0.0,0.0,87,0.00,,---,0.00,VWS V14.01,2013-03-09 03:13:00,
2013-03-08 22:18:00,54.2,50.4,30.11,NNW,344,0.0,0.0,87,0.00,,---,0.00,VWS V14.01,2013-03-09 03:18:00,
2013-03-08 22:23:00,54.2,50.4,30.12,NNW,344,0.0,0.0,87,0.00,,---,0.00,VWS V14.01,2013-03-09 03:23:00,
2013-03-08 22:28:00,54.1,50.3,30.11,NNW,344,0.0,0.0,87,0.00,,---,0.00,VWS V14.01,2013-03-09 03:28:00,
2013-03-08 22:30:00,52.8,48.7,30.10,NNW,344,0.0,0.0,86,0.00,,---,0.00,VWS V14.01,2013-03-09 03:30:00,
2013-03-08 22:33:00,54.0,50.2,30.11,NNW,344,0.0,0.0,87,0.00,,---,0.00,VWS V14.01,2013-03-09 03:33:00,
2013-03-08 22:38:00,53.9,50.1,30.11,NNW,344,0.0,0.0,87,0.00,,---,0.00,VWS V14.01,2013-03-09 03:38:00,
2013-03-08 22:43:00,53.9,50.1,30.11,NNW,344,0.0,0.0,87,0.00,,---,0.00,VWS V14.01,2013-03-09 03:43:00,
2013-03-08 22:48:00,53.8,50.0,30.11,NNW,344,0.0,0.0,87,0.00,,---,0.00,VWS V14.01,2013-03-09 03:48:00,
2013-03-08 22:53:00,53.7,49.9,30.11,NNW,344,0.0,0.0,87,0.00,,---,0.00,VWS V14.01,2013-03-09 03:53:00,
2013-03-08 22:58:00,53.5,49.4,30.11,NNW,344,0.0,0.0,86,0.00,,---,0.00,VWS V14.01,2013-03-09 03:58:00,
2013-03-08 23:00:00,52.6,48.2,30.09,NNW,344,0.0,0.0,85,0.00,,---,0.00,VWS V14.01,2013-03-09 04:00:00,
2013-03-08 23:03:00,53.4,49.6,30.11,NNW,344,0.0,0.0,87,0.00,,---,0.00,VWS V14.01,2013-03-09 04:03:00,
2013-03-08 23:08:00,53.3,49.5,30.11,NNW,344,0.0,0.0,87,0.00,,---,0.00,VWS V14.01,2013-03-09 04:08:00,
2013-03-08 23:13:00,53.2,49.4,30.11,NNW,344,0.0,0.0,87,0.00,,---,0.00,VWS V14.01,2013-03-09 04:13:00,
2013-03-08 23:18:00,53.1,49.0,30.10,NNW,344,0.0,0.0,86,0.00,,---,0.00,VWS V14.01,2013-03-09 04:18:00,
2013-03-08 23:23:00,52.9,48.8,30.10,NNW,344,0.0,0.0,86,0.00,,---,0.00,VWS V14.01,2013-03-09 04:23:00,
2013-03-08 23:28:00,52.8,48.7,30.10,NNW,344,0.0,0.0,86,0.00,,---,0.00,VWS V14.01,2013-03-09 04:28:00,
2013-03-08 23:30:00,52.2,48.5,30.09,NNW,344,0.0,0.0,87,0.00,,---,0.00,VWS V14.01,2013-03-09 04:30:00,
2013-03-08 23:33:00,52.8,48.7,30.10,NNW,344,0.0,0.0,86,0.00,,---,0.00,VWS V14.01,2013-03-09 04:33:00,
2013-03-08 23:38:00,52.8,48.7,30.10,NNW,344,0.0,0.0,86,0.00,,---,0.00,VWS V14.01,2013-03-09 04:38:00,
2013-03-08 23:43:00,52.8,48.7,30.09,NNW,344,0.0,0.0,86,0.00,,---,0.00,VWS V14.01,2013-03-09 04:43:00,
2013-03-08 23:48:00,52.8,48.7,30.10,NNW,344,0.0,0.0,86,0.00,,---,0.00,VWS V14.01,2013-03-09 04:48:00,
2013-03-08 23:53:00,52.7,48.3,30.09,NNW,344,0.0,0.0,85,0.00,,---,0.00,VWS V14.01,2013-03-09 04:53:00,
2013-03-08 23:58:00,52.6,48.2,30.09,NNW,344,0.0,0.0,85,0.00,,---,0.00,VWS V14.01,2013-03-09 04:58:00,